When you browse on this site, cookies collect data to enhance your experience and personalize the content and advertising you see.
Visit our Privacy Policy to learn more. By continuing to use the site, you agree to this use of cookies and data.
  • In Portugal
  • List of Countries
  • For 7 days
  • Water Temperature
  • Satellite Maps
  • Weather Map
  • Weather Widgets
  • user-avatar
    Login

    Hourly Weather Vikov

    Today, 20 June, Thursday

    Time Temperature Precipitation Wind Pressure Humidity
    00:00 +19°C° 0 mm 3 mps 751 mmHg 85%
    01:00 +18°C° 0 mm 2 mps 751 mmHg 86%
    02:00 +18°C° 0 mm 2 mps 751 mmHg 88%
    03:00 +18°C° 0 mm 2 mps 751 mmHg 88%
    04:00 +18°C° 0 mm 2 mps 751 mmHg 88%
    05:00 +18°C° 0 mm 2 mps 751 mmHg 89%
    06:00 +20°C° 0 mm 2 mps 751 mmHg 84%
    07:00 +21°C° 0 mm 3 mps 751 mmHg 80%
    08:00 +24°C° 0 mm 3 mps 751 mmHg 76%
    09:00 +25°C° 0.1 mm 3 mps 751 mmHg 71%
    10:00 +26°C° 0.1 mm 3 mps 751 mmHg 67%
    11:00 +28°C° 0.1 mm 4 mps 751 mmHg 62%
    12:00 +28°C° 0.1 mm 3 mps 750 mmHg 59%
    13:00 +29°C° 0.1 mm 3 mps 750 mmHg 56%
    14:00 +30°C° 0.1 mm 3 mps 750 mmHg 53%
    15:00 +29°C° 0.3 mm 3 mps 750 mmHg 59%
    16:00 +28°C° 0.3 mm 3 mps 750 mmHg 64%
    17:00 +28°C° 0.3 mm 3 mps 749 mmHg 70%
    18:00 +27°C° 0.2 mm 3 mps 749 mmHg 75%
    19:00 +25°C° 0.2 mm 3 mps 749 mmHg 81%
    20:00 +24°C° 0.2 mm 3 mps 750 mmHg 86%
    21:00 +22°C° 0 mm 3 mps 750 mmHg 88%
    22:00 +21°C° 0 mm 3 mps 750 mmHg 89%
    23:00 +21°C° 0 mm 3 mps 750 mmHg 91%

    Tomorrow, 21 June, Friday

    Time Temperature Precipitation Wind Pressure Humidity
    00:00 +20°C° 0 mm 3 mps 750 mmHg 92%
    01:00 +20°C° 0 mm 3 mps 750 mmHg 93%
    02:00 +20°C° 0 mm 3 mps 750 mmHg 94%
    03:00 +20°C° 0 mm 3 mps 750 mmHg 94%
    04:00 +20°C° 0 mm 3 mps 750 mmHg 94%
    05:00 +20°C° 0 mm 3 mps 751 mmHg 93%
    06:00 +21°C° 0 mm 3 mps 751 mmHg 88%
    07:00 +24°C° 0 mm 3 mps 751 mmHg 83%
    08:00 +25°C° 0 mm 4 mps 751 mmHg 77%
    09:00 +27°C° 0 mm 4 mps 751 mmHg 72%
    10:00 +28°C° 0 mm 4 mps 751 mmHg 66%
    11:00 +30°C° 0 mm 4 mps 751 mmHg 61%
    12:00 +30°C° 0.5 mm 4 mps 750 mmHg 61%
    13:00 +30°C° 0.5 mm 4 mps 750 mmHg 62%
    14:00 +30°C° 0.5 mm 4 mps 750 mmHg 62%
    15:00 +30°C° 1 mm 4 mps 750 mmHg 65%
    16:00 +29°C° 1 mm 3 mps 750 mmHg 68%
    17:00 +29°C° 1 mm 3 mps 750 mmHg 71%
    18:00 +28°C° 0.4 mm 2 mps 750 mmHg 76%
    19:00 +26°C° 0.4 mm 2 mps 750 mmHg 80%
    20:00 +25°C° 0.4 mm 2 mps 750 mmHg 85%
    21:00 +24°C° 0.3 mm 2 mps 750 mmHg 87%
    22:00 +23°C° 0.3 mm 2 mps 750 mmHg 89%
    23:00 +23°C° 0.3 mm 2 mps 750 mmHg 91%

    Day after tomorrow, 22 June, Saturday

    Time Temperature Precipitation Wind Pressure Humidity
    00:00 +21°C° 0 mm 2 mps 750 mmHg 92%
    01:00 +21°C° 0 mm 2 mps 750 mmHg 93%
    02:00 +20°C° 0 mm 3 mps 750 mmHg 94%
    03:00 +21°C° 0.3 mm 2 mps 750 mmHg 94%
    04:00 +21°C° 0.3 mm 2 mps 750 mmHg 94%
    05:00 +21°C° 0.3 mm 2 mps 751 mmHg 94%
    06:00 +23°C° 0.1 mm 2 mps 751 mmHg 90%
    07:00 +24°C° 0.1 mm 2 mps 751 mmHg 85%
    08:00 +26°C° 0.1 mm 2 mps 751 mmHg 81%
    09:00 +26°C° 2.6 mm 2 mps 751 mmHg 78%
    10:00 +27°C° 2.6 mm 2 mps 751 mmHg 76%
    11:00 +28°C° 2.6 mm 1 mps 751 mmHg 73%
    12:00 +28°C° 0.8 mm 1 mps 751 mmHg 73%
    13:00 +27°C° 0.8 mm 1 mps 751 mmHg 73%
    14:00 +27°C° 0.8 mm 1 mps 751 mmHg 73%
    15:00 +28°C° 0.1 mm 1 mps 751 mmHg 70%
    16:00 +28°C° 0.1 mm 1 mps 751 mmHg 68%
    17:00 +29°C° 0.1 mm 1 mps 751 mmHg 65%
    18:00 +27°C° 0.6 mm 1 mps 751 mmHg 72%
    19:00 +25°C° 0.6 mm 2 mps 751 mmHg 79%
    20:00 +24°C° 0.6 mm 2 mps 751 mmHg 87%
    21:00 +23°C° 1 mm 2 mps 752 mmHg 89%
    22:00 +23°C° 1 mm 2 mps 752 mmHg 91%
    23:00 +21°C° 1 mm 2 mps 752 mmHg 93%

    23 June, Sunday

    Time Temperature Precipitation Wind Pressure Humidity
    00:00 +21°C° 0.1 mm 2 mps 752 mmHg 94%
    01:00 +20°C° 0.1 mm 2 mps 752 mmHg 95%
    02:00 +20°C° 0.1 mm 2 mps 752 mmHg 96%
    03:00 +20°C° 0.2 mm 2 mps 752 mmHg 96%
    04:00 +20°C° 0.2 mm 2 mps 752 mmHg 96%
    05:00 +20°C° 0.2 mm 2 mps 752 mmHg 97%
    06:00 +21°C° 0.3 mm 2 mps 752 mmHg 94%
    07:00 +23°C° 0.3 mm 2 mps 752 mmHg 92%
    08:00 +24°C° 0.3 mm 2 mps 752 mmHg 90%
    09:00 +25°C° 1.6 mm 2 mps 752 mmHg 86%
    10:00 +25°C° 1.6 mm 2 mps 752 mmHg 82%
    11:00 +26°C° 1.6 mm 2 mps 752 mmHg 79%
    12:00 +26°C° 1 mm 2 mps 752 mmHg 80%
    13:00 +26°C° 1 mm 3 mps 752 mmHg 82%
    14:00 +25°C° 1 mm 3 mps 752 mmHg 84%
    15:00 +25°C° 0.5 mm 3 mps 752 mmHg 85%
    16:00 +25°C° 0.5 mm 3 mps 752 mmHg 86%
    17:00 +24°C° 0.5 mm 3 mps 752 mmHg 87%
    18:00 +24°C° 0.1 mm 3 mps 752 mmHg 89%
    19:00 +22°C° 0.1 mm 3 mps 752 mmHg 91%
    20:00 +21°C° 0.1 mm 3 mps 753 mmHg 94%
    21:00 +21°C° 0 mm 3 mps 753 mmHg 95%
    22:00 +20°C° 0 mm 3 mps 753 mmHg 96%
    23:00 +20°C° 0 mm 3 mps 753 mmHg 97%

    24 June, Monday

    Time Temperature Precipitation Wind Pressure Humidity
    00:00 +19°C° 0.2 mm 3 mps 753 mmHg 97%
    01:00 +19°C° 0.2 mm 3 mps 753 mmHg 97%
    02:00 +19°C° 0.2 mm 3 mps 753 mmHg 97%
    03:00 +19°C° 0.5 mm 3 mps 753 mmHg 97%
    04:00 +18°C° 0.5 mm 3 mps 753 mmHg 97%
    05:00 +18°C° 0.5 mm 3 mps 753 mmHg 97%
    06:00 +19°C° 0 mm 3 mps 754 mmHg 95%
    07:00 +19°C° 0 mm 4 mps 754 mmHg 93%
    08:00 +20°C° 0 mm 4 mps 754 mmHg 92%
    09:00 +21°C° 0 mm 4 mps 754 mmHg 87%
    10:00 +22°C° 0 mm 4 mps 754 mmHg 83%
    11:00 +23°C° 0 mm 5 mps 754 mmHg 79%
    12:00 +25°C° 0 mm 5 mps 754 mmHg 76%
    13:00 +25°C° 0 mm 5 mps 754 mmHg 74%
    14:00 +25°C° 0 mm 5 mps 754 mmHg 71%
    15:00 +26°C° 0 mm 5 mps 754 mmHg 70%
    16:00 +26°C° 0 mm 5 mps 754 mmHg 69%
    17:00 +26°C° 0 mm 5 mps 754 mmHg 69%
    18:00 +25°C° 0 mm 4 mps 754 mmHg 74%
    19:00 +22°C° 0 mm 4 mps 755 mmHg 79%
    20:00 +21°C° 0 mm 3 mps 755 mmHg 84%
    21:00 +20°C° 0 mm 3 mps 755 mmHg 87%
    22:00 +19°C° 0 mm 3 mps 755 mmHg 90%
    23:00 +18°C° 0 mm 3 mps 756 mmHg 93%

    25 June, Tuesday

    Time Temperature Precipitation Wind Pressure Humidity
    00:00 +17°C° 0 mm 3 mps 756 mmHg 92%
    01:00 +17°C° 0 mm 3 mps 756 mmHg 92%
    02:00 +16°C° 0 mm 3 mps 756 mmHg 91%
    03:00 +16°C° 0 mm 3 mps 756 mmHg 90%
    04:00 +14°C° 0 mm 3 mps 756 mmHg 88%
    05:00 +14°C° 0 mm 3 mps 756 mmHg 87%
    06:00 +17°C° 0 mm 3 mps 756 mmHg 82%
    07:00 +18°C° 0 mm 3 mps 756 mmHg 77%
    08:00 +20°C° 0 mm 4 mps 756 mmHg 72%
    09:00 +21°C° 0 mm 4 mps 756 mmHg 66%
    10:00 +23°C° 0 mm 4 mps 756 mmHg 60%
    11:00 +25°C° 0 mm 4 mps 756 mmHg 55%
    12:00 +25°C° 0 mm 4 mps 756 mmHg 53%
    13:00 +26°C° 0 mm 4 mps 756 mmHg 51%
    14:00 +26°C° 0 mm 5 mps 756 mmHg 50%
    15:00 +26°C° 0 mm 4 mps 756 mmHg 52%
    16:00 +25°C° 0 mm 4 mps 756 mmHg 55%
    17:00 +25°C° 0 mm 4 mps 756 mmHg 57%
    18:00 +22°C° 0 mm 4 mps 756 mmHg 63%
    19:00 +20°C° 0 mm 3 mps 756 mmHg 68%
    20:00 +19°C° 0 mm 2 mps 756 mmHg 74%
    21:00 +18°C° 0 mm 2 mps 756 mmHg 74%
    22:00 +17°C° 0 mm 2 mps 757 mmHg 74%
    23:00 +16°C° 0 mm 2 mps 757 mmHg 73%
    Show more